Terminal Aerodrome Forecast
Issued by NWS Shreveport, LA

Home | Current Version | Previous Version | Text Only | Print | Product List | Glossary On
Versions: 1 2 3 4 5 6 7 8 9 10 11 12 13 14 15 16 17 18 19 20 21 22
917
FTUS44 KSHV 290538
TAFGGG
TAF
KGGG 290538Z 2906/3006 13005KT P6SM SCT035 WS010/16020KT
     FM290800 16004KT 3SM BR BKN010
     FM291200 17005KT P6SM SCT030
      TEMPO 2912/2915 BKN020
     FM291500 VRB06KT P6SM SCT040 BKN250=

USA.gov is the U.S. government's official web portal to all federal, state and local government web resources and services.